User: anonymous   Login
Location: Ferma
(41.9500°N, 44.5167°E)
Time: 11:50:30
(UTC+00:00)
Language:

Meteor 1-11 - Orbit

View from above orbital plane
View from above orbital plane
View from above satellite
View from above satellite

Ground track
Ground track

The orbit data is extracted from the following two-line orbital elements,

1 05917U 72022A   22025.79582614  .00000144  00000-0  76149-4 0  9998
2 05917  81.2221  46.6650 0030931 173.5763 186.5810 14.08737225558652
Epoch (UTC): 25 January 2022 19:05:59
Eccentricity: 0.0030931
inclination: 81.2221°
perigee height: 841 km
apogee height: 886 km
right ascension of ascending node: 46.6650°
argument of perigee: 173.5763°
revolutions per day: 14.08737225
mean anomaly at epoch: 186.5810°
orbit number at epoch: 55865

The dashed part of the orbit path shows where the satellite is in the earth's shadow,  

DLR